Current Version              Previous Version:    01  02  03  04  05  06  07  08  09  10  11  12  13  14  15  16  17  18  19  20  21  22  23  24  25  26  27  28  29  30  
   31  32  33  34  35  36  37  38  39  40  41  42  43  44  45  46  47  48  49  50  51  52  53  54  55  56  57  58  59  60  

[Printable]
755
ASUS44 KEWX 180210
RWRTX
SOUTH TEXAS REGIONAL WEATHER ROUNDUP
NATIONAL WEATHER SERVICE AUSTIN/SAN ANTONIO TX
800 PM CST WED DEC 17 2014

NOTE: "FAIR" INDICATED FEW OR NO CLOUDS BELOW 12,000 FEET WITH NO
SIGNIFICANT WEATHER AND/OR OBSTRUCTIONS TO VISIBILITY.

* - THESE STATIONS ARE NOT NWS OR FAA STATIONS...AND ARE NOT SUBJECT
    TO NWS AND FAA QUALITY CONTROL.

TXZ171-172-183>190-180300-
TEXAS HILL COUNTRY AND EDWARDS PLATEAU

CITY           SKY/WX    TMP DP  RH WIND       PRES   REMARKS
JUNCTION       CLOUDY    51  51 100 CALM      30.08R FOG
*LLANO         CLOUDY    48  46  93 CALM      30.13R
BURNET         CLOUDY    48  47  96 CALM      30.10S FOG
*HORSESHOE BAY DRIZZLE   49  49 100 CALM      30.09S
*KERRVILLE     LGT RAIN  51  50  96 CALM      30.08S
*FREDERICKSBRG CLOUDY    50  49  97 CALM      30.08S FOG
*ROCKSPRINGS   FOG       52  52 100 S5        30.10R VSB 1/4
*BOERNE STAGE  CLOUDY    52  50  93 CALM      30.09R
*CASTROVILLE   CLOUDY    56  53  92 CALM      30.08R
HONDO          CLOUDY    55  53  93 N7        30.08R
*UVALDE        CLOUDY    53  53 100 CALM      30.08R FOG
DEL RIO        CLOUDY    54  49  83 CALM      30.08R
LAUGHLIN AFB   CLOUDY    52  48  87 CALM      30.08R
CARRIZO SPRGS  FOG       52  52 100 N5        30.06R VSB 1/2
$$

TXZ173-191>194-202-209-217>225-228-180300-
CENTRAL AND SOUTH CENTRAL TEXAS

CITY           SKY/WX    TMP DP  RH WIND       PRES   REMARKS
GEORGETOWN     CLOUDY    50  46  87 CALM      30.09R
AUSTIN/BERGSTM CLOUDY    52  51  97 N7        30.08R
AUSTIN/MABRY   CLOUDY    53  51  93 CALM      30.10R
*AUSTIN/EXEC   CLOUDY    50  48  93 N6        30.09R WCI  48
*LAGO VISTA    CLOUDY    51  49  95 CALM      30.10R FOG
SAN MARCOS     CLOUDY    54  50  87 N7        30.07R
NEW BRAUNFELS  CLOUDY    56  51  84 N7        30.06R
RANDOLPH AFB   CLOUDY    56  51  83 N5        30.07R
PT SAN ANTONIO CLOUDY    57  52  82 N7        30.05R
SAN ANTONIO    CLOUDY    55  52  89 N7        30.07R
STINSON FIELD  CLOUDY    58  52  80 N5        30.04R
*PLEASANTON    CLOUDY    60  53  79 N5        30.04R
*LA GRANGE     CLOUDY    60  57  92 CALM      30.07R
*GIDDINGS      CLOUDY    56  53  88 SE7       30.10S
*GONZALES      CLOUDY    58  56  93 E8        30.05S
$$

TXZ163>164-176>182-195>201-210>213-226-227-235-180300-
SOUTHEAST TEXAS

CITY           SKY/WX    TMP DP  RH WIND       PRES   REMARKS
COLLEGE STN    CLOUDY    52  49  89 E7        30.09F
*BRYAN         CLOUDY    49  47  94 E6        30.11F WCI  47
*CALDWELL      CLOUDY    50  48  93 CALM      30.11F
*CROCKETT      LGT RAIN  54  48  82 E3        30.16F
*BRENHAM       CLOUDY    58  55  91 NE5       30.11S
HUNTSVILLE     CLOUDY    55  47  74 CALM      30.11R
CONROE         CLOUDY    57  51  80 SE6       30.12R
HOUSTON BUSH   CLOUDY    59  53  80 SE12      30.10S
HOUSTON HOBBY  CLOUDY    61  57  87 SE9G16    30.10R
*HOUSTON SW AP CLOUDY    58  56  92 E6        30.09F
PEARLAND       MOCLDY    63  58  83 E8        30.11R
HOUSTON HOOKS  CLOUDY    58  54  86 SE7       30.12R
ELLINGTON FLD  CLOUDY    61  57  88 E12       30.12
SUGAR LAND     MOCLDY    61  57  87 E5        30.10S
*HOUSTON EXEC  MOCLDY    59  55  88 E10       30.11R
*CLEVELAND MUN CLOUDY    56  50  81 CALM      30.13R
*WHARTON       CLOUDY    64  60  87 NE5       30.09R
*COLUMBUS      CLOUDY    62  59  91 SE5       30.08R
$$

TXZ214>216-236>238-180300-
THE UPPER TEXAS COAST

CITY           SKY/WX    TMP DP  RH WIND       PRES   REMARKS
*ORANGE        MOCLDY    55  47  74 E6        30.14S
PORT ARTHUR    MOCLDY    57  50  77 E10       30.13R
GALVESTON      CLOUDY    64  62  93 E13       30.11R
ANGLETON       CLOUDY    65  62  90 E7        30.09R
*BAY CITY        N/A     67  65  91 E9        30.07S
PALACIOS       MOCLDY    65  63  93 E5        30.06R
$$

TXZ229>234-239>247-180300-
TEXAS COASTAL BEND AND RIO GRANDE PLAINS

CITY           SKY/WX    TMP DP  RH WIND       PRES   REMARKS
VICTORIA       PTCLDY    64  62  93 E6        30.06S
*BEEVILLE      PTCLDY    66  65  97 SE7       30.03R
ROCKPORT       CLOUDY    69  64  84 SE5       30.05R
*PORT ARANSAS  CLOUDY    67  64  93 S3        30.04R
*PORT LAVACA   CLOUDY    64  63  95 E3        30.06R
*INGLESIDE     CLOUDY    69  65  85 SE8       30.04R
CORPUS CHRISTI CLOUDY    69  65  86 SE8       30.03R
CORPUS NAS     CLOUDY    69  67  93 S8        30.04R
*ROBSTOWN      NOT AVBL
ALICE          CLOUDY    70  65  84 SE9       30.01S
KINGSVILLE NAS CLOUDY    69  67  93 SE8       30.03R
COTULLA        CLOUDY    56  53  90 N8        30.05R
*FAITH RANCH   CLOUDY    54  50  87 NW6       30.06R
LAREDO         CLOUDY    59  55  88 NW8       30.06
$$

TXZ248>255-180300-
DEEP SOUTH TEXAS

CITY           SKY/WX    TMP DP  RH WIND       PRES   REMARKS
BROWNSVILLE    CLOUDY    71  67  87 SE15      30.00S
PORT ISABEL    CLOUDY    71  66  84 SE13      30.01R
*SOUTH PADRE   CLOUDY    70  68  94 NE12      30.01S
HARLINGEN      CLOUDY    71  67  87 CALM      30.01R
*HEBBRONVILLE  CLOUDY    70  62  76 SE6       30.02R
MCALLEN        CLOUDY    72  66  81 SE9       30.02R
*WESLACO       CLOUDY    71  65  80 SE7       30.01R
FALFURRIAS     CLOUDY    73  64  73 SE7       30.02R
EDINBURG       CLOUDY    73  65  75 SE6       30.02R
*ZAPATA        CLOUDY    61  60  96 CALM      30.01S
$$

TXZ213>215-236>238-242>244-246-247-251-254-255-180300-
CMAN STATIONS

STATION/POSITION TIME  TEMP    WIND        PRES    WAVE
                       AIR SEA DIR/SP/G            HT/PER
                 (UTC) (F)     (DEG/KT/KT) (MB)    (FT/S)
SABINE PASS      0200   60 62  120/ 14/ 18 1019.8
SEA RIM ST PARK  0200   60     110/ 11/ 15 1020.6
NORTH JETTY/GLS  0200   63 62  130/ 14/ 17   N/A
EAGLE POINT      0200   63 62  120/ 12/ 14 1019.5
MORGANS POINT    0200   60      90/  8/ 10 1019.8
MISSION/ARANSAS  0100   67     130/  6     1018.0
PORT O`CONNOR    0200          100/  5/  7   N/A
PORT ARANSAS     0200   67 65  140/  5/  6 1017.8
MALAQUITE BEACH  0200   67 69  140/  6/  7 1016.5
BAFFIN BAY       0200   68     140/  6/  8 1016.6
PORT ISABEL      0200   71 69  140/  9/ 15 1015.8
$$

GMZ080-GMZ150>470-180300-
OFFSHORE BUOY REPORTS

STATION/POSITION TIME  TEMP    WIND        PRES    WAVE
                       AIR SEA DIR/SP/G            HT/PER
                 (UTC) (F)     (DEG/KT/KT) (MB)    (FT/S)
20 E GALVESTON   0200   65 65  110/ 17/ 21 1018.1    4/ 5
90 E PT ARANSAS  0200   72 72  140/ 16/ 19 1017.7    5/ 6
35 NE PT MANSFLD 0200   72 72  150/ 16/ 19 1016.1    4/ 6
200 E PT ISABEL  0200   74 73  160/ 12/ 14 1019.2    3/ 5
$$